Total_Precipitation_Accumulation
0.00 0.00 0.00 0.00 0.00 0.00 0.01 0.01 0.01 0.01 0.01 0.01 0.03 0.06 0.08 0.11 0.13 0.14 0.17 0.22 0.25 0.27 0.32 0.39 0.43 0.46 0.50 0.48 0.45 0.42 0.40 0.44 0.42 0.10 0.03 0.05 0.14 0.20 0.21 0.21 0.23 0.22 0.19
0.00 0.00 0.00 0.00 0.00 0.00 0.01 0.01 0.01 0.01 0.01 0.02 0.06 0.12 0.15 0.18 0.18 0.19 0.22 0.32 0.44 0.44 0.42 0.43 0.46 0.50 0.56 0.58 0.59 0.53 0.43 0.36 0.39 0.24 0.07 0.05 0.10 0.21 0.26 0.26 0.25 0.23 0.20
0.00 0.00 0.00 0.00 0.00 0.00 0.00 0.00 0.00 0.01 0.01 0.02 0.08 0.19 0.25 0.30 0.30 0.28 0.31 0.37 0.52 0.65 0.68 0.68 0.63 0.58 0.60 0.59 0.63 0.60 0.50 0.40 0.35 0.31 0.16 0.08 0.10 0.20 0.32 0.35 0.31 0.27 0.23
0.00 0.00 0.00 0.00 0.00 0.00 0.00 0.00 0.00 0.01 0.02 0.04 0.09 0.19 0.29 0.41 0.53 0.55 0.58 0.55 0.58 0.67 0.74 0.79 0.80 0.82 0.77 0.71 0.69 0.64 0.59 0.53 0.43 0.38 0.27 0.17 0.15 0.20 0.36 0.44 0.39 0.32 0.29
0.00 0.00 0.00 0.00 0.00 0.00 0.00 0.00 0.00 0.01 0.02 0.05 0.06 0.11 0.21 0.48 0.88 0.91 0.82 0.74 0.61 0.54 0.53 0.57 0.66 0.82 0.89 0.92 0.94 0.84 0.77 0.76 0.64 0.54 0.43 0.32 0.25 0.29 0.41 0.48 0.52 0.45 0.38
0.00 0.00 0.00 0.00 0.00 0.00 0.00 0.00 0.00 0.01 0.02 0.04 0.04 0.06 0.14 0.42 0.84 0.91 0.69 0.51 0.38 0.35 0.36 0.35 0.38 0.53 0.64 0.72 0.83 0.83 0.86 0.96 0.98 0.84 0.64 0.48 0.36 0.35 0.42 0.53 0.62 0.64 0.55
0.00 0.00 0.00 0.00 0.00 0.00 0.00 0.00 0.00 0.01 0.02 0.04 0.03 0.03 0.06 0.26 0.65 0.74 0.52 0.30 0.20 0.19 0.20 0.20 0.21 0.31 0.40 0.44 0.52 0.57 0.63 0.76 0.95 1.01 0.93 0.69 0.51 0.39 0.47 0.55 0.61 0.68 0.63
0.00 0.00 0.00 0.00 0.00 0.00 0.00 0.00 0.01 0.01 0.02 0.03 0.03 0.02 0.03 0.12 0.49 0.67 0.48 0.23 0.14 0.13 0.15 0.13 0.11 0.16 0.29 0.40 0.48 0.49 0.49 0.59 0.83 1.01 1.11 1.00 0.81 0.66 0.69 0.78 0.81 0.73 0.69
0.00 0.00 0.00 0.00 0.00 0.00 0.01 0.01 0.01 0.01 0.01 0.02 0.02 0.02 0.02 0.04 0.32 0.66 0.56 0.25 0.13 0.11 0.13 0.15 0.10 0.08 0.22 0.31 0.31 0.29 0.28 0.40 0.56 0.76 0.86 0.86 0.82 0.82 0.84 0.92 0.93 0.83 0.89
0.00 0.00 0.00 0.00 0.00 0.01 0.01 0.01 0.01 0.02 0.02 0.02 0.01 0.01 0.01 0.02 0.17 0.57 0.70 0.31 0.14 0.11 0.10 0.11 0.15 0.15 0.21 0.22 0.17 0.17 0.22 0.30 0.32 0.37 0.42 0.46 0.51 0.56 0.68 0.86 0.99 0.98 1.06
0.00 0.00 0.00 0.00 0.00 0.01 0.01 0.01 0.01 0.01 0.02 0.01 0.01 0.01 0.01 0.02 0.06 0.34 0.71 0.52 0.24 0.14 0.12 0.12 0.13 0.16 0.16 0.14 0.12 0.12 0.22 0.22 0.19 0.24 0.30 0.35 0.42 0.51 0.63 0.79 0.96 1.07 1.13
0.00 0.00 0.00 0.00 0.01 0.01 0.01 0.02 0.02 0.02 0.02 0.02 0.02 0.02 0.02 0.02 0.06 0.22 0.41 0.48 0.33 0.15 0.12 0.11 0.12 0.11 0.09 0.08 0.07 0.09 0.09 0.08 0.10 0.15 0.19 0.25 0.36 0.49 0.62 0.78 0.92 1.02 1.09
0.00 0.00 0.00 0.00 0.00 0.01 0.02 0.02 0.02 0.02 0.04 0.05 0.05 0.03 0.02 0.03 0.10 0.21 0.20 0.21 0.24 0.20 0.21 0.16 0.08 0.05 0.04 0.04 0.04 0.05 0.04 0.04 0.07 0.11 0.15 0.21 0.32 0.45 0.52 0.60 0.72 0.87 0.95
0.00 0.00 0.00 0.01 0.01 0.02 0.02 0.02 0.03 0.05 0.13 0.15 0.10 0.06 0.05 0.09 0.22 0.37 0.23 0.11 0.12 0.16 0.17 0.13 0.06 0.04 0.03 0.02 0.01 0.02 0.02 0.03 0.06 0.09 0.13 0.17 0.21 0.30 0.40 0.53 0.64 0.77 0.87
0.00 0.00 0.00 0.01 0.02 0.02 0.02 0.03 0.04 0.07 0.19 0.25 0.15 0.14 0.16 0.30 0.39 0.41 0.28 0.20 0.20 0.22 0.15 0.10 0.07 0.05 0.05 0.03 0.02 0.01 0.01 0.02 0.03 0.04 0.08 0.12 0.17 0.24 0.34 0.46 0.61 0.72 0.85
0.00 0.00 0.01 0.02 0.02 0.03 0.03 0.03 0.04 0.06 0.10 0.11 0.11 0.14 0.16 0.33 0.32 0.21 0.17 0.14 0.18 0.19 0.13 0.10 0.07 0.04 0.04 0.03 0.02 0.02 0.01 0.01 0.02 0.03 0.06 0.10 0.16 0.24 0.32 0.39 0.53 0.69 0.82
0.01 0.01 0.02 0.03 0.03 0.03 0.03 0.05 0.05 0.04 0.05 0.05 0.05 0.08 0.14 0.22 0.19 0.14 0.11 0.06 0.07 0.08 0.09 0.07 0.05 0.04 0.04 0.03 0.03 0.02 0.02 0.01 0.02 0.03 0.05 0.08 0.13 0.18 0.26 0.34 0.44 0.57 0.73
0.01 0.01 0.03 0.03 0.04 0.05 0.05 0.06 0.07 0.08 0.06 0.04 0.03 0.04 0.08 0.12 0.12 0.10 0.08 0.08 0.08 0.07 0.07 0.06 0.06 0.05 0.05 0.05 0.04 0.03 0.02 0.02 0.01 0.02 0.03 0.05 0.10 0.15 0.21 0.28 0.37 0.51 0.65
0.01 0.02 0.03 0.05 0.05 0.06 0.06 0.07 0.08 0.08 0.07 0.05 0.04 0.04 0.05 0.06 0.06 0.07 0.08 0.11 0.08 0.06 0.05 0.05 0.05 0.06 0.06 0.05 0.04 0.03 0.03 0.03 0.02 0.02 0.02 0.04 0.07 0.12 0.18 0.24 0.32 0.42 0.54
0.01 0.03 0.04 0.05 0.06 0.06 0.08 0.09 0.09 0.09 0.08 0.07 0.07 0.07 0.12 0.12 0.10 0.08 0.08 0.09 0.08 0.06 0.05 0.06 0.06 0.06 0.07 0.06 0.05 0.04 0.03 0.02 0.02 0.02 0.02 0.03 0.05 0.09 0.14 0.20 0.26 0.34 0.45
0.02 0.03 0.04 0.04 0.06 0.07 0.09 0.10 0.11 0.11 0.11 0.09 0.07 0.08 0.18 0.17 0.11 0.08 0.08 0.09 0.10 0.10 0.08 0.08 0.07 0.08 0.07 0.06 0.05 0.04 0.03 0.03 0.02 0.03 0.03 0.03 0.04 0.06 0.09 0.15 0.21 0.29 0.38
0.04 0.04 0.04 0.05 0.08 0.09 0.12 0.12 0.13 0.14 0.12 0.11 0.08 0.06 0.10 0.12 0.10 0.10 0.10 0.10 0.10 0.11 0.11 0.11 0.10 0.09 0.10 0.09 0.08 0.06 0.04 0.03 0.03 0.03 0.03 0.03 0.04 0.05 0.07 0.10 0.16 0.23 0.30
0.04 0.04 0.05 0.07 0.09 0.11 0.13 0.12 0.14 0.15 0.13 0.11 0.10 0.09 0.09 0.09 0.09 0.10 0.11 0.11 0.12 0.11 0.10 0.11 0.12 0.10 0.10 0.09 0.08 0.08 0.07 0.06 0.05 0.05 0.05 0.04 0.04 0.04 0.06 0.08 0.12 0.19 0.28
0.04 0.06 0.09 0.11 0.12 0.13 0.14 0.15 0.15 0.16 0.14 0.13 0.11 0.10 0.10 0.09 0.09 0.10 0.10 0.10 0.11 0.11 0.11 0.13 0.13 0.12 0.11 0.10 0.08 0.06 0.07 0.07 0.07 0.07 0.06 0.06 0.05 0.05 0.06 0.08 0.11 0.16 0.26
0.06 0.09 0.11 0.13 0.16 0.17 0.17 0.17 0.16 0.15 0.14 0.13 0.12 0.11 0.10 0.10 0.09 0.09 0.09 0.09 0.09 0.09 0.10 0.12 0.14 0.15 0.13 0.11 0.10 0.08 0.07 0.06 0.08 0.12 0.13 0.11 0.09 0.07 0.08 0.10 0.12 0.16 0.23
0.08 0.11 0.13 0.16 0.19 0.19 0.20 0.20 0.18 0.16 0.16 0.13 0.12 0.12 0.11 0.11 0.11 0.10 0.10 0.11 0.12 0.10 0.10 0.12 0.14 0.17 0.15 0.13 0.12 0.10 0.08 0.09 0.12 0.13 0.14 0.13 0.10 0.09 0.09 0.11 0.12 0.15 0.20